| time (UTC) | temp F | wind direction | speed knots | gust knots | rain 1hr in | rain 24hr in | rain mn in | humidity % | barometer mb |
| 20260506043458 | 48 | 39 | 0.9 | 5.2 | 0.01 | 0.00 | 0.01 | 88 | 1007.5 |
| 20260506042958 | 48 | 29 | 1.7 | 5.2 | 0.01 | 0.00 | 0.01 | 88 | 1007.6 |
| 20260506034954 | 48 | 39 | 1.7 | 5.2 | 0.00 | 0.00 | 0.00 | 87 | 1007.8 |
| 20260506033455 | 49 | 17 | 1.7 | 8.7 | 0.00 | 0.00 | 0.00 | 86 | 1007.8 |
| 20260506032505 | 49 | 34 | 3.5 | 8.7 | 0.00 | 0.00 | 0.00 | 86 | 1007.9 |
| 20260506032005 | 49 | 46 | 1.7 | 8.7 | 0.00 | 0.00 | 0.00 | 86 | 1007.8 |
| 20260506030934 | 49 | 38 | 0.9 | 7.8 | 0.00 | 0.00 | 0.00 | 86 | 1007.9 |
| 20260506021925 | 49 | 24 | 1.7 | 6.1 | 0.00 | 0.01 | 0.00 | 85 | 1008.2 |
| 20260506014921 | 49 | 39 | 1.7 | 8.7 | 0.00 | 0.02 | 0.00 | 84 | 1008.4 |
| 20260506013933 | 50 | 39 | 1.7 | 6.1 | 0.00 | 0.03 | 0.00 | 84 | 1008.5 |
| 20260506013007 | 50 | 35 | 1.7 | 4.3 | 0.00 | 0.05 | 0.00 | 83 | 1008.6 |
| 20260506011933 | 50 | 31 | 2.6 | 7.8 | 0.00 | 0.06 | 0.00 | 83 | 1008.5 |
| 20260506010935 | 50 | 284 | 2.6 | 9.6 | 0.00 | 0.08 | 0.00 | 83 | 1008.7 |
| 20260506005359 | 50 | 53 | 2.6 | 8.7 | 0.00 | 0.09 | 0.00 | 83 | 1008.8 |
| 20260506002357 | 50 | 39 | 1.7 | 11.3 | 0.00 | 0.25 | 0.00 | 83 | 1008.9 |
| 20260506000431 | 51 | 32 | 2.6 | 7.8 | 0.00 | 0.31 | 0.31 | 83 | 1009.0 |
| 20260505235932 | 51 | 32 | 2.6 | 6.1 | 0.00 | 0.31 | 0.31 | 83 | 1009.0 |
| 20260505235418 | 51 | 32 | 2.6 | 6.1 | 0.00 | 0.32 | 0.31 | 83 | 1009.1 |
| 20260505233854 | 51 | 286 | 2.6 | 7.8 | 0.00 | 0.35 | 0.31 | 82 | 1009.1 |
| 20260505232330 | 51 | 42 | 3.5 | 7.8 | 0.00 | 0.41 | 0.31 | 83 | 1009.2 |
| 20260505230402 | 51 | 50 | 2.6 | 7.8 | 0.00 | 0.66 | 0.31 | 83 | 1009.2 |
| 20260505225903 | 51 | 42 | 1.7 | 11.3 | 0.00 | 0.69 | 0.31 | 82 | 1009.2 |
| 20260505225326 | 51 | 38 | 3.5 | 11.3 | 0.00 | 0.69 | 0.31 | 83 | 1009.3 |
| 20260505224828 | 51 | 27 | 2.6 | 8.7 | 0.00 | 0.69 | 0.31 | 83 | 1009.3 |
| 20260505222934 | 51 | 21 | 1.7 | 8.7 | 0.00 | 0.76 | 0.31 | 83 | 1009.3 |
| 20260505221858 | 51 | 35 | 3.5 | 6.1 | 0.00 | 0.76 | 0.31 | 83 | 1009.4 |
| 20260505220829 | 51 | 35 | 2.6 | 8.7 | 0.00 | 0.76 | 0.31 | 83 | 1009.2 |
| 20260505215936 | 51 | 36 | 2.6 | 8.7 | 0.00 | 0.76 | 0.31 | 83 | 1009.2 |
| 20260505212426 | 52 | 35 | 3.5 | 7.8 | 0.00 | 0.76 | 0.31 | 83 | 1009.1 |
| 20260505211532 | 52 | 63 | 1.7 | 6.1 | 0.00 | 0.76 | 0.31 | 83 | 1009.0 |
| 20260505211038 | 52 | 32 | 2.6 | 8.7 | 0.00 | 0.76 | 0.31 | 83 | 1009.0 |
| 20260505210456 | 52 | 24 | 3.5 | 8.7 | 0.00 | 0.76 | 0.31 | 83 | 1008.9 |
| 20260505204502 | 52 | 36 | 1.7 | 7.8 | 0.00 | 0.76 | 0.31 | 82 | 1008.9 |
| 20260505202012 | 52 | 38 | 3.5 | 7.8 | 0.00 | 0.76 | 0.31 | 82 | 1008.8 |
| 20260505201515 | 53 | 38 | 3.5 | 7.8 | 0.00 | 0.76 | 0.31 | 82 | 1008.8 |
| 20260505194519 | 53 | 32 | 1.7 | 4.3 | 0.00 | 0.76 | 0.31 | 81 | 1008.9 |
| 20260505191948 | 53 | 32 | 2.6 | 6.1 | 0.00 | 0.76 | 0.31 | 81 | 1008.8 |
| 20260505191400 | 53 | 29 | 2.6 | 7.8 | 0.00 | 0.76 | 0.31 | 81 | 1008.8 |
| 20260505185455 | 53 | 43 | 2.6 | 7.8 | 0.00 | 0.76 | 0.31 | 81 | 1009.1 |
| 20260505182951 | 53 | 12 | 2.6 | 7.8 | 0.00 | 0.76 | 0.31 | 82 | 1009.1 |
| 20260505182454 | 53 | 28 | 1.7 | 6.1 | 0.00 | 0.76 | 0.31 | 82 | 1009.2 |
| 20260505181958 | 53 | 29 | 2.6 | 6.1 | 0.00 | 0.76 | 0.31 | 82 | 1009.2 |
| 20260505181501 | 53 | 31 | 1.7 | 6.1 | 0.00 | 0.76 | 0.31 | 82 | 1009.3 |
| 20260505180429 | 53 | 34 | 1.7 | 6.1 | 0.00 | 0.76 | 0.31 | 83 | 1009.2 |
| 20260505175841 | 53 | 36 | 1.7 | 6.1 | 0.00 | 0.76 | 0.31 | 83 | 1009.2 |
| 20260505175259 | 53 | 28 | 1.7 | 3.5 | 0.00 | 0.76 | 0.31 | 83 | 1009.3 |
| 20260505174756 | 53 | 39 | 0.9 | 6.1 | 0.00 | 0.76 | 0.31 | 83 | 1009.4 |
| 20260505173801 | 53 | 21 | 1.7 | 4.3 | 0.00 | 0.76 | 0.31 | 83 | 1009.3 |
| 20260505171209 | 53 | 34 | 1.7 | 5.2 | 0.00 | 0.76 | 0.31 | 83 | 1009.5 |
| 20260505170712 | 53 | 39 | 2.6 | 5.2 | 0.00 | 0.76 | 0.31 | 83 | 1009.6 |
| 20260505162644 | 53 | 22 | 0.9 | 6.1 | 0.00 | 0.76 | 0.31 | 83 | 1009.8 |
| 20260505162104 | 53 | 18 | 3.5 | 8.7 | 0.00 | 0.76 | 0.31 | 83 | 1009.7 |
| 20260505161602 | 53 | 31 | 2.6 | 8.7 | 0.00 | 0.76 | 0.31 | 83 | 1009.8 |
| 20260505160610 | 53 | 31 | 0.9 | 5.2 | 0.00 | 0.76 | 0.31 | 83 | 1009.8 |
| 20260505153222 | 53 | 27 | 3.5 | 8.7 | 0.00 | 0.76 | 0.31 | 83 | 1010.1 |
| 20260505150306 | 53 | 19 | 4.3 | 6.1 | 0.00 | 0.76 | 0.31 | 84 | 1010.2 |
| 20260505130233 | 51 | 24 | 3.5 | 8.7 | 0.00 | 0.76 | 0.31 | 87 | 1010.8 |
| 20260505124747 | 51 | 24 | 1.7 | 6.1 | 0.00 | 0.76 | 0.31 | 87 | 1010.8 |
| 20260505123142 | 51 | 29 | 3.5 | 8.7 | 0.00 | 0.76 | 0.31 | 87 | 1010.8 |
| 20260505122645 | 51 | 18 | 4.3 | 8.7 | 0.00 | 0.76 | 0.31 | 88 | 1010.8 |
| 20260505115117 | 50 | 36 | 2.6 | 9.6 | 0.00 | 0.76 | 0.31 | 89 | 1011.1 |
| 20260505112123 | 49 | 14 | 4.3 | 9.6 | 0.00 | 0.76 | 0.31 | 89 | 1011.0 |
| 20260505110250 | 49 | 31 | 4.3 | 8.7 | 0.00 | 0.76 | 0.31 | 88 | 1011.0 |
| 20260505095734 | 49 | 34 | 3.5 | 8.7 | 0.00 | 0.76 | 0.31 | 88 | 1011.0 |
| 20260505084218 | 49 | 25 | 1.7 | 6.1 | 0.00 | 0.76 | 0.31 | 90 | 1011.1 |
| 20260505082725 | 49 | 31 | 1.7 | 7.8 | 0.00 | 0.76 | 0.31 | 91 | 1011.3 |
| 20260505080706 | 49 | 42 | 2.6 | 6.1 | 0.00 | 0.76 | 0.31 | 91 | 1011.2 |
| 20260505072641 | 50 | 31 | 1.7 | 5.2 | 0.00 | 0.76 | 0.31 | 92 | 1011.1 |
| 20260505071654 | 50 | 29 | 0.9 | 4.3 | 0.00 | 0.76 | 0.31 | 92 | 1011.0 |
| 20260505070050 | 49 | 24 | 0.9 | 6.1 | 0.00 | 0.76 | 0.31 | 92 | 1010.7 |
| 20260505063049 | 49 | 42 | 0.9 | 7.8 | 0.00 | 0.76 | 0.31 | 92 | 1010.9 |
| 20260505061137 | 49 | 31 | 1.7 | 8.7 | 0.00 | 0.76 | 0.31 | 93 | 1011.0 |
| 20260505060603 | 49 | 36 | 2.6 | 8.7 | 0.00 | 0.76 | 0.31 | 92 | 1010.9 |
| 20260505055117 | 50 | 27 | 2.6 | 9.6 | 0.00 | 0.77 | 0.31 | 93 | 1010.8 |
| 20260505052701 | 50 | 27 | 2.6 | 8.7 | 0.00 | 0.77 | 0.31 | 93 | 1011.0 |
| 20260505052123 | 50 | 25 | 2.6 | 7.8 | 0.00 | 0.77 | 0.31 | 93 | 1011.0 |
| 20260505051156 | 50 | 27 | 0.9 | 5.2 | 0.00 | 0.77 | 0.31 | 93 | 1010.9 |
| 20260505050654 | 50 | 25 | 2.6 | 6.1 | 0.00 | 0.77 | 0.31 | 93 | 1011.1 |
| 20260505050149 | 50 | 38 | 2.6 | 6.1 | 0.00 | 0.77 | 0.31 | 93 | 1011.1 |